Regional Weather Roundup
Issued by NWS

Home | Current Version | Previous Version | Text Only | Print | Product List | Glossary Off
Versions: 1 2 3 4 5 6 7 8 9 10 11 12 13 14 15 16 17 18 19 20 21 22 23 24 25 26 27 28 29 30 31 32 33 34 35 36 37 38 39 40 41 42 43 44 45 46 47 48 49 50

978
ASUS43 KMKX 061600
RWRWI

WISCONSIN REGIONAL WEATHER ROUNDUP
NATIONAL WEATHER SERVICE MILWAUKEE/SULLIVAN WI
1000 AM CST TUE DEC 06 2016

NOTE: "FAIR" INDICATES FEW OR NO CLOUDS BELOW 12,000 FEET WITH NO
SIGNIFICANT WEATHER AND/OR OBSTRUCTIONS TO VISIBILITY.

WIZ001-002-006>008-014>016-023>028-061700-
NORTHWEST WISCONSIN

CITY           SKY/WX    TMP DP  RH WIND       PRES   REMARKS
SUPERIOR ARPT  CLOUDY    28  20  71 SW13G26   29.59S WCI  17
ASHLAND        LGT SNOW  31  29  92 MISG      29.59F FOG
HAYWARD        CLOUDY    28  22  78 SW10G22   29.60F WCI  19
SIREN          CLOUDY    25  16  69 SW18G25   29.64F WCI  11
CUMBERLAND     CLOUDY    25  18  74 SW15      29.65F WCI  12
RICE LAKE      CLOUDY    26  19  76 SW8       29.68F WCI  18
CHETEK         CLOUDY    27  21  80 W7G17     29.68R WCI  19
LADYSMITH      LGT SNOW  29  28  93 SW9       29.66S WCI  21
EAU CLAIRE     NOT AVBL
MENOMONIE      PTSUNNY   26  21  79 SW12G21   29.71S WCI  16
NEW RICHMOND   CLOUDY    23  15  71 SW20G25   29.70R WCI   8
OSCEOLA        CLOUDY    24  16  71 SW18      29.73S WCI   9
$$

WIZ003>005-009-010-017-018-061700-
NORTH CENTRAL WISCONSIN

CITY           SKY/WX    TMP DP  RH WIND       PRES   REMARKS
MANITOWISH WTR LGT SNOW  30  30 100 S13       29.59F WCI  20
ARBOR VITAE    LGT SNOW  32  30  92 S9G16     29.62S WCI  24
WOODRUFF       LGT SNOW  32  30  92 S9G16     29.62S WCI  24
RHINELANDER    CLOUDY    30  29  96 S14       29.64F FOG     WCI  19
EAGLE RIVER    CLOUDY    30  29  95 S8G17     29.63F FOG     WCI  23
LAND O LAKES   CLOUDY    32  29  90 S10G17    29.64F FOG     WCI  23
PHILLIPS       SNOW      29  29  97 SW9       29.62R VSB 1/2 WCI  21
TOMAHAWK       LGT SNOW  29  28  95 S5        29.65F VSB 1   WCI  24
MEDFORD        MIX PCPN  29  28  95 S12       29.65S VSB 3/4 WCI  20
MERRILL        LGT SNOW  30  30 100 S6        29.68S WCI  24
$$

WIZ029-030-035-036-043>047-061700-
CENTRAL WISCONSIN

CITY           SKY/WX    TMP DP  RH WIND       PRES   REMARKS
WAUSAU         CLOUDY    30  29  96 S14       29.68R FOG     WCI  19
MOSINEE        NOT AVBL
MARSHFIELD     SNOW      30  29  96 S10       29.67S VSB 1/2 WCI  21
STEVENS POINT  CLOUDY    29  29 100 S10       29.71F FOG     WCI  20
WAUPACA        CLOUDY    33  31  92 S9        29.75R FOG     WCI  26
WAUTOMA        CLOUDY    32  30  92 S7        29.75S FOG     WCI  26
WISC RAPIDS    LGT SNOW  32  31  96 S9        29.73R FOG     WCI  24
CAMP DOUGLAS   NOT AVBL
$$

WIZ011>013-019>022-031-037>040-048>050-061700-
NORTHEAST WISCONSIN

CITY           SKY/WX    TMP DP  RH WIND       PRES   REMARKS
ANTIGO         CLOUDY    29  29 100 S12       29.70R FOG     WCI  19
SHAWANO        CLOUDY    35  32  89 S8        29.72F FOG     WCI  28
OCONTO         CLOUDY    38  34  84 S6        29.75F WCI  34
STURGEON BAY   CLOUDY    38  33  82 S14G21    29.76F WCI  30
GREEN BAY      CLOUDY    37  35  92 SW7       29.75F FOG     WCI  32
MANITOWOC      NOT AVBL
APPLETON       FOG       32  32 100 SW7       29.73F VSB 1   WCI  26
CLINTONVILLE   CLOUDY    32  30  93 S9        29.74S FOG     WCI  24
OSHKOSH        CLOUDY    33  32  96 S8        29.74F FOG     WCI  26
$$

WIZ032>034-041-042-053>061-061700-
SOUTHWEST WISCONSIN

CITY           SKY/WX    TMP DP  RH WIND       PRES   REMARKS
LA CROSSE      CLOUDY    32  26  78 W12       29.77R WCI  23
SPARTA         LGT SNOW  32  32  99 W5        29.74R VSB 3/4 WCI  27
VIROQUA        CLOUDY    30  28  94 W21G28    29.75R WCI  17
BOSCOBEL       LGT SNOW  35  31  85 W7        29.80R FOG     WCI  29
PRAIRIE DU CHI CLOUDY    32  27  83 W13       29.81R WCI  22
PLATTEVILLE    CLOUDY    33  33 100 SW7       29.78R VSB 1/2 WCI  27
$$

WIZ056-057-062-063-064-067-068-061700-
SOUTH CENTRAL WISCONSIN

CITY           SKY/WX    TMP DP  RH WIND       PRES   REMARKS
REEDSBURG      CLOUDY    32  32 100 S6        29.75R FOG     WCI  26
BARABOO/DELLS  CLOUDY    32  31  98 S6        29.74S FOG     WCI  26
LONE ROCK      NOT AVBL
MINERAL POINT  FOG       34  34 100 SW5       29.76R VSB 1/4 WCI  30
MADISON        CLOUDY    32  31  96 S6        29.78R FOG     WCI  26
MIDDLETON      NOT AVBL
WATERTOWN      FOG       32  32 100 S5        29.77F VSB 3/4 WCI  27
MONROE         CLOUDY    32  32 100 S5        29.76S FOG     WCI  27
JANESVILLE     CLOUDY    34  34 100 CALM      29.78S FOG
$$

WIZ051-052-058>065-066-070>072-061700-
SOUTHEAST WISCONSIN

CITY           SKY/WX    TMP DP  RH WIND       PRES   REMARKS
MILWAUKEE      PTSUNNY   40  35  83 SW5       29.77F HAZE
WAUKESHA       CLOUDY    34  32  93 W5        29.78S FOG     WCI  30
MILWAUKEE/TIMM CLOUDY    37  34  87 SW3       29.78F FOG
RACINE         CLOUDY    39  34  82 VRB3      29.78F
BURLINGTON     CLOUDY    33  33  99 CALM      29.78S FOG
KENOSHA        CLOUDY    35  33  92 W5        29.77F FOG     WCI  31
FOND DU LAC    CLOUDY    34  31  88 S8        29.75F FOG     WCI  27
SHEBOYGAN      CLOUDY    39  33  79 S10       29.76F WCI  32
WEST BEND      CLOUDY    36  34  93 CALM      29.77S FOG
JUNEAU         CLOUDY    32  31  99 S7        29.77S FOG     WCI  25
$$

LSZ147-162-061700-
LAKE SUPERIOR

STATION/POSITION TIME  TEMP    WIND        PRES    WAVE
                       AIR SEA DIR/SP/G            HT/PER
                 (UTC) (F)     (DEG/KT/KT) (MB)    (FT/S)
DEVILS ISLAND    1500   35     190/  9/ 12 1002.2F
PORT WING        1530   31     200/  9/ 16 1002.0S
SAXON HARBOR     1540   35     180/  5/ 10 1002.4R
$$

LMZ867-665-643>646-061700-
LAKE MICHIGAN

STATION/POSITION TIME  TEMP    WIND        PRES    WAVE
                       AIR SEA DIR/SP/G            HT/PER
                 (UTC) (F)     (DEG/KT/KT) (MB)    (FT/S)
CHAMBERS ISLAND  1540   40     140/  6/ 14 1007.5F
NORTHPORT PIER   1540   39     150/ 15/ 20 1008.1F
SISTER BAY       1539   41     190/ 15/ 22   N/A
ALGOMA LAKESHORE 1506          210/ 20/ 23   N/A
KEWAUNEE LAKESHO 1530   39     170/ 17/ 22 1007.8F
SHEBOYGAN LAKESH 1500   39     150/ 17/ 19 1008.3F
PORT WASHINGTON  1530   41     150/ 10/ 13 1009.1S
MILWAUKEE LAKESH 1530   40     150/ 10/ 11   N/A
KENOSHA   LAKESH 1500   40     140/ 11/ 12 1008.5
$$

TC  - TEMPERATURE IN CELSIUS
VSB - VISIBILITY IN STATUTE MILES
WCI - WIND CHILL INDEX
HX  - HEAT INDEX





USA.gov is the U.S. government's official web portal to all federal, state and local government web resources and services.